Location: Unspecified
(47.9110°N, 14.3980°E)
Time: 09:01:55
(UTC+00:00)

COSMOS 2406 - Pass Details

Date: 06 August 2020
Orbit: 845 x 862 km, 71.0° (Epoch: 20 September)

Event Time Altitude Azimuth Distance (km) Brightness Sun altitude
Rises 20:10:00 0° 209° (SSW) 3,425 6.2 -14.4°
Reaches altitude 10° 20:12:27 10° 211° (SSW) 2,491 5.5 -14.7°
Maximum altitude 20:18:12 79° 298° (WNW) 879 3.4 -15.3°
Drops below altitude 10° 20:23:57 10° 26° (NNE) 2,497 5.9 -16.0°
Sets 20:26:25 0° 28° (NNE) 3,435 6.7 -16.3°
